Orbital Elements at Epoch 2459200.5 (2020-Dec-17.0) TDB
Reference: JPL 18 (heliocentric ecliptic J2000)
Element | Value | Uncertainty (1-sigma) | Units |
e | .1234749972717218 | 4.8308e-08 | |
a | 2.641052681796705 | 1.669e-08 | au |
q | 2.314948709117383 | 1.2808e-07 | au |
i | 16.19932366585408 | 5.4896e-06 | deg |
node | 73.00116568245359 | 1.9699e-05 | deg |
peri | 161.6595833310148 | 3.0405e-05 | deg |
M | 89.24623562395833 | 2.4254e-05 | deg |
tp | 2458811.856481469444 (2019-Nov-24.35648147) | 0.00010405 | TDB |
period | 1567.703844232962 4.29 | 1.486e-05 4.068e-08 | d yr |
n | .2296352090506859 | 2.1767e-09 | deg/d |
Q | 2.967156654476027 | 1.8751e-08 | au |
|
| | Orbit Determination Parameters
Additional Information
|